Temperature
17 17 17 18 14 12 14 15 15 15 15 15 15 14 13 12 13 13 11 12 12 13 13 13 13 13 14 14 14 14 14 14 14 14 14 15 14 14 15 15 15 15 15 15 15 15 15 15 15
17 17 17 17 12 13 14 14 14 15 15 15 14 13 12 11 11 11 11 11 12 13 13 13 13 13 13 14 14 14 14 14 14 14 14 14 14 14 14 14 14 14 14 15 15 15 15 15 14
16 17 17 12 12 13 14 14 14 14 15 15 13 12 11 10 10 10 11 11 12 12 12 13 13 13 13 13 13 14 14 14 14 14 14 14 14 14 14 14 14 14 14 14 14 15 14 14 14
17 17 15 11 13 13 13 13 14 14 14 14 12 10 10 9 10 10 11 11 12 12 12 12 12 12 13 13 13 13 13 13 13 13 14 14 14 14 14 14 14 14 14 14 14 14 14 14 14
17 16 12 11 13 13 12 13 14 13 12 12 12 10 9 9 10 10 11 11 11 12 12 12 12 12 12 13 13 13 13 13 13 13 13 13 13 13 13 13 14 14 14 14 14 14 14 14 14
16 13 11 11 13 13 13 13 13 11 11 11 11 9 8 9 10 10 10 11 11 11 11 12 12 12 12 12 12 12 12 12 13 13 13 13 13 13 13 13 13 13 13 13 13 13 13 13 13
14 10 11 12 12 13 12 12 11 10 10 10 10 9 8 9 9 9 10 10 11 11 11 11 11 11 12 12 12 12 12 12 12 12 12 12 12 13 13 13 13 13 13 13 13 13 13 13 13
15 10 12 12 12 12 12 11 10 10 9 9 10 8 7 8 8 9 9 10 10 10 11 11 11 11 11 11 11 11 11 12 12 12 12 12 12 12 12 12 12 12 13 13 12 12 12 13 13
14 10 10 11 12 11 11 10 10 9 9 8 8 8 8 8 8 9 9 9 10 10 10 10 10 10 11 11 11 11 11 11 11 11 11 11 11 12 12 12 12 12 12 12 12 12 12 12 12
12 9 11 11 11 10 10 9 9 9 8 7 7 7 7 8 8 8 9 9 9 9 9 9 9 10 10 10 10 10 10 10 10 10 10 11 11 11 11 11 11 11 12 12 12 12 12 12 12
11 9 10 10 10 10 9 8 9 8 7 7 7 6 7 7 7 7 8 8 8 8 8 8 9 9 9 9 9 10 10 10 10 10 10 10 10 11 11 11 11 11 11 11 11 11 11 11 11
10 9 10 10 10 10 9 8 7 7 7 7 7 7 7 7 7 7 7 7 7 7 7 8 8 8 8 9 9 9 9 9 9 9 9 10 10 10 10 10 10 10 10 10 11 11 11 11 11
9 9 9 9 9 8 8 7 7 6 7 6 6 6 6 6 6 6 6 6 6 7 7 7 7 7 8 8 8 8 8 9 9 9 9 9 9 10 10 10 10 10 10 10 10 10 10 10 10
9 9 9 9 9 8 7 6 6 6 6 6 6 5 5 5 5 5 6 6 6 6 6 6 7 7 7 7 8 8 8 8 8 8 8 8 9 9 9 9 9 9 9 10 10 10 10 10 10
9 8 8 8 8 7 7 6 5 6 6 5 5 5 4 4 4 5 5 5 5 5 6 6 6 6 6 7 7 7 7 7 7 8 8 8 8 8 8 9 9 9 9 9 9 9 9 9 9
9 8 8 8 8 7 7 6 5 6 5 4 4 4 4 4 4 4 4 4 5 5 5 5 6 6 6 6 6 6 6 7 7 7 7 7 7 7 8 8 8 8 8 8 8 8 9 9 9
7 7 7 7 7 7 6 6 5 5 5 4 3 3 3 3 3 3 3 4 4 4 5 5 5 5 5 5 5 6 6 6 6 6 6 7 7 7 7 7 7 7 7 7 8 8 8 8 8
7 7 7 7 7 6 5 5 4 5 4 3 3 2 2 2 2 3 3 3 3 4 4 4 4 4 4 5 5 5 5 5 5 6 6 6 6 6 6 6 6 7 7 7 7 7 7 7 7
8 7 7 7 6 6 5 4 4 4 3 2 2 2 2 2 2 2 2 3 3 3 3 3 4 4 4 4 4 4 4 4 5 5 5 5 5 5 5 5 6 6 6 6 6 6 6 6 6
7 7 6 6 6 6 4 4 3 3 2 2 2 1 1 1 1 1 2 2 2 2 3 3 3 3 3 3 3 3 3 3 3 4 4 4 4 4 4 5 5 5 5 5 5 5 5 6 6
6 6 6 5 5 5 4 3 3 2 2 2 1 1 1 1 1 1 1 1 2 2 2 2 2 2 2 2 2 3 3 3 3 3 3 3 3 4 4 4 4 4 4 4 5 5 5 5 5
6 6 6 5 4 3 4 3 3 2 1 1 1 1 1 1 1 1 1 1 1 1 1 1 1 1 1 2 2 2 2 2 2 2 2 2 2 3 3 3 3 3 4 4 4 4 4 4 4
5 5 5 5 4 3 3 3 2 1 1 0 0 1 1 0 0 0 0 0 0 0 0 0 1 1 1 1 1 1 1 1 1 1 1 2 2 2 2 2 2 3 3 3 3 3 3 3 3
5 4 4 3 2 3 3 2 2 1 1 1 0 0 0 0 0 0 0 -0 -0 -0 -0 -0 0 0 0 0 0 0 0 0 0 0 0 1 1 1 1 1 1 2 2 2 2 3 3 3 3
4 4 4 3 3 3 3 2 1 0 0 0 0 0 0 0 -0 -0 -0 -0 -0 -1 -1 -1 -1 -0 -0 -1 -0 -1 -1 -1 -1 -1 -0 -0 0 0 0 0 1 1 1 1 2 2 2 2 2
4 4 4 4 3 3 2 2 1 -0 -0 0 0 0 -0 -0 -0 -0 -1 -1 -1 -1 -1 -1 -1 -1 -1 -1 -1 -1 -1 -1 -1 -1 -1 -1 -1 -1 -0 -0 -0 0 0 1 1 1 1 2 2
4 3 3 2 1 1 1 0 0 -0 -1 -1 -0 -0 -0 -1 -1 -1 -1 -1 -1 -2 -2 -2 -2 -2 -2 -2 -2 -2 -2 -2 -2 -2 -2 -2 -2 -1 -1 -1 -1 -1 -0 0 0 1 1 1 1
3 2 1 1 2 2 2 1 1 -0 -1 -1 -1 -1 -1 -1 -1 -1 -1 -2 -2 -2 -2 -2 -3 -3 -3 -3 -2 -2 -2 -2 -2 -2 -2 -2 -2 -2 -2 -1 -1 -1 -1 -0 -0 0 0 0 1
2 2 1 0 0 1 1 1 0 -1 -1 -2 -2 -1 -1 -1 -1 -2 -2 -2 -2 -2 -3 -3 -3 -3 -3 -3 -3 -3 -3 -3 -3 -3 -3 -3 -3 -3 -2 -2 -2 -2 -1 -1 -1 -1 -0 -0 -0
2 1 0 1 0 -1 -0 0 -0 -2 -1 -1 -1 -1 -1 -2 -2 -2 -2 -2 -3 -3 -3 -3 -4 -4 -4 -4 -4 -4 -3 -4 -3 -3 -3 -3 -3 -3 -3 -3 -2 -2 -2 -2 -2 -1 -1 -1 -1
Wind_Speed
12 9 3 4 6 6 1 2 1 2 3 2 5 8 9 6 4 4 2 4 5 5 4 4 6 7 9 10 10 9 9 8 9 9 9 9 9 9 10 10 10 10 10 10 10 10 11 11 11
7 3 5 5 5 3 2 2 1 1 2 3 6 7 8 6 4 3 3 5 6 5 4 4 6 7 9 10 10 10 9 8 9 9 9 9 9 9 9 9 10 10 10 10 10 10 10 10 10
5 3 5 5 4 4 3 1 2 2 4 4 5 6 5 4 3 2 4 5 6 6 6 5 6 7 8 9 9 9 10 9 8 8 8 8 8 8 9 9 10 10 9 9 9 9 8 8 8
4 5 5 5 3 1 3 2 2 3 5 6 5 6 4 5 3 3 4 6 6 7 8 7 8 8 9 9 10 10 10 9 9 8 8 8 8 8 8 9 9 9 9 9 8 8 8 8 7
4 5 5 3 1 1 0 1 2 4 3 4 4 6 3 4 6 6 6 7 7 7 9 8 9 9 9 9 9 10 10 10 9 9 8 8 7 7 8 8 8 8 8 8 7 6 6 7 7
5 5 5 2 2 1 1 3 3 6 4 4 5 5 3 4 7 7 7 7 8 8 9 9 9 10 10 10 9 9 10 10 9 9 9 8 7 7 7 7 7 6 7 6 6 6 5 6 6
4 4 4 4 3 1 1 3 4 4 4 3 2 4 1 4 5 5 6 7 9 10 11 11 9 9 9 10 10 10 9 9 9 9 8 8 8 7 7 7 6 6 6 5 4 5 5 4 5
5 4 3 1 3 1 2 2 3 4 3 3 4 4 1 2 3 5 6 8 9 10 11 11 11 10 9 9 9 10 10 9 8 9 9 9 8 7 7 7 6 6 6 4 4 4 4 4 4
4 5 2 2 4 2 2 3 3 3 5 5 5 4 2 3 5 7 8 9 9 10 10 12 12 12 10 8 8 9 9 9 8 8 8 8 7 7 6 6 6 6 5 5 4 4 4 4 3
5 4 3 1 2 4 3 3 2 4 5 4 6 7 6 6 7 8 8 8 8 9 9 11 12 12 12 8 8 8 8 8 8 8 7 6 6 5 6 5 5 6 5 5 5 5 4 4 3
4 4 2 1 2 4 3 3 3 4 3 2 3 4 5 7 7 7 6 6 5 5 7 9 11 12 11 9 8 7 7 7 7 8 8 6 6 5 5 5 4 5 5 5 5 5 4 4 3
3 2 2 1 2 3 3 3 4 4 2 3 5 5 5 6 6 5 5 5 5 6 7 8 10 11 11 10 8 7 6 6 6 7 7 7 5 5 4 4 3 3 3 3 4 3 4 4 3
2 2 3 4 7 5 6 4 3 2 4 5 7 7 6 5 5 4 4 5 5 6 6 7 9 10 10 9 8 7 6 6 6 6 6 6 5 4 4 3 3 3 3 3 3 3 3 3 3
3 3 3 2 3 2 4 2 2 2 4 6 6 5 5 4 4 5 5 5 6 6 6 6 8 9 10 8 8 7 6 6 6 6 6 6 5 5 4 3 3 3 2 2 2 2 2 2 2
4 4 3 1 1 2 4 2 2 4 5 5 5 4 4 4 4 5 4 4 4 4 5 6 7 9 9 8 8 7 6 7 6 6 6 6 6 5 4 3 3 4 3 2 2 2 2 2 2
4 4 1 3 1 1 3 2 2 4 6 5 4 4 4 4 5 4 4 5 5 5 6 6 8 8 8 8 8 7 7 6 6 6 7 7 6 6 4 4 4 4 4 2 1 1 1 2 2
4 1 2 3 0 2 2 4 3 3 5 4 3 3 3 4 5 5 5 5 5 4 5 6 7 8 8 8 8 7 7 6 6 7 7 8 8 7 5 3 4 4 3 2 2 1 1 1 1
2 2 2 3 1 1 2 4 3 3 4 4 3 3 3 3 3 4 5 5 4 4 4 5 6 7 8 7 7 6 7 7 7 7 7 8 8 8 6 4 4 4 2 2 2 2 2 1 1
2 2 3 4 1 1 4 5 5 3 3 3 3 3 2 1 2 3 4 4 5 5 5 5 6 6 6 5 5 4 5 5 5 7 8 8 8 8 6 5 4 4 1 1 2 1 2 1 1
1 1 3 3 2 1 3 5 4 3 4 5 5 3 2 1 3 4 5 5 5 5 5 5 5 5 5 4 4 3 3 3 4 6 7 8 7 7 6 5 4 3 2 2 2 1 1 1 1
1 2 3 3 4 2 1 4 1 1 2 2 3 3 3 2 1 2 3 4 4 5 5 5 5 5 5 6 5 4 3 3 4 5 5 8 8 7 6 6 4 4 2 2 2 1 1 2 2
3 3 2 2 2 3 0 4 5 2 1 1 2 2 2 1 1 0 2 3 3 3 4 4 5 5 5 5 4 4 4 4 5 4 5 7 8 7 7 6 5 4 3 2 3 2 2 1 2
3 3 2 2 2 3 2 3 6 0 2 3 3 3 2 2 1 1 1 2 2 2 3 3 4 5 5 5 4 4 4 4 4 4 5 6 7 7 7 7 6 5 4 3 3 3 2 2 2
1 3 3 3 3 3 4 5 5 3 4 4 3 2 2 1 1 1 1 2 2 2 2 3 4 5 5 5 5 4 5 5 6 6 6 5 5 6 7 7 6 6 4 4 4 3 3 3 3
4 4 4 5 2 5 2 3 6 3 2 3 4 3 2 1 1 1 1 2 3 3 3 3 4 5 5 5 5 5 4 4 5 6 6 6 5 5 6 8 7 6 6 6 5 4 5 5 4
0 3 3 4 5 5 3 4 4 2 1 1 2 2 1 1 1 2 1 1 2 3 3 3 4 5 5 5 6 5 5 4 4 5 5 6 5 5 7 8 7 8 7 7 5 5 5 4 5
1 2 3 3 2 4 5 5 4 1 1 1 1 1 1 1 2 2 2 1 2 3 3 3 4 5 5 6 6 5 5 5 5 6 6 5 6 7 8 8 7 8 7 7 6 5 5 5 5
2 4 4 3 2 5 6 5 4 4 4 3 2 2 2 2 3 2 2 2 2 3 3 3 3 4 5 5 5 6 6 6 6 6 6 6 7 8 8 7 7 7 7 7 6 5 5 6 6
2 2 3 3 3 4 5 6 3 6 6 5 4 3 3 3 3 3 2 2 3 3 3 3 4 5 5 6 6 6 6 6 6 6 7 7 7 8 8 8 8 7 7 7 6 6 6 7 7
4 5 5 4 5 4 3 6 2 3 4 4 3 3 3 3 3 2 2 3 3 4 4 4 4 5 5 6 6 6 7 7 7 7 8 7 8 8 8 8 8 8 8 7 7 8 7 8 8
Wind_Direction
332 338 57 56 59 56 62 301 285 38 51 45 63 83 91 78 79 113 334 10 16 12 23 42 39 46 52 56 58 59 64 72 76 82 82 80 78 77 76 73 73 75 76 76 77 78 74 72 71
333 4 52 59 87 95 294 304 80 67 148 115 63 70 74 67 52 61 356 352 18 29 39 44 46 50 53 55 55 56 60 67 74 77 80 81 80 80 77 72 70 73 74 75 75 77 76 72 70
338 51 75 73 103 158 175 244 149 93 61 63 67 53 74 72 39 8 339 5 29 35 44 45 53 54 56 56 54 56 58 61 68 74 77 78 79 81 79 76 71 69 72 75 74 76 76 73 70
50 48 59 74 110 200 177 224 182 101 45 39 87 74 69 43 7 354 12 32 38 31 39 48 51 52 57 56 53 54 54 55 62 71 71 71 71 77 80 78 75 71 72 72 70 71 73 71 69
60 75 70 65 136 198 212 293 88 81 62 24 74 101 80 11 24 45 44 42 45 30 35 42 44 48 53 55 54 52 52 53 58 65 66 67 69 73 78 76 77 76 75 72 69 67 70 70 69
54 68 94 146 170 172 3 13 64 67 67 36 59 98 112 21 28 37 43 42 42 37 31 36 39 40 43 48 50 50 50 54 56 59 61 61 65 70 74 74 75 80 79 73 71 69 66 69 68
95 93 135 157 154 119 17 40 61 80 66 30 45 95 103 16 17 36 45 44 41 40 33 25 27 33 39 41 44 46 45 49 52 52 53 57 58 64 68 69 72 75 76 73 68 67 62 59 62
112 101 103 138 154 173 352 52 68 72 77 27 61 103 147 328 18 49 52 47 41 35 29 23 22 25 30 36 38 39 41 42 46 48 48 52 54 54 60 60 62 64 63 66 65 66 60 51 56
82 79 137 189 170 163 41 69 35 57 77 50 48 70 84 73 62 57 47 38 34 30 24 20 17 18 20 31 33 35 39 40 44 45 47 50 44 45 48 53 56 55 54 51 52 53 51 44 45
74 124 189 236 163 135 83 74 85 66 58 60 49 45 59 64 65 62 53 42 32 23 17 17 16 15 15 21 28 33 36 33 34 35 40 42 41 41 46 49 51 52 51 49 44 38 37 38 32
93 143 153 71 97 112 100 68 47 108 70 108 109 88 67 63 59 60 56 49 36 24 19 13 13 15 17 15 24 28 29 28 28 30 31 35 38 38 40 43 40 45 48 41 28 27 24 22 20
96 54 111 108 51 72 86 97 59 70 141 119 114 112 97 81 67 60 55 42 31 28 19 12 13 16 15 15 19 28 28 26 25 25 31 36 32 26 28 31 24 30 35 26 19 14 9 13 9
94 98 69 85 78 87 86 85 101 98 118 101 98 90 88 79 66 48 47 43 37 29 17 12 15 17 13 15 15 21 20 20 20 23 27 32 30 20 12 14 12 12 18 13 3 6 6 7 7
121 104 86 66 84 78 98 79 106 182 127 105 97 94 90 84 73 48 33 31 27 22 12 9 18 18 16 15 13 12 12 14 21 18 17 23 25 17 7 4 358 350 354 344 343 351 0 354 8
98 74 33 356 131 149 113 34 202 189 131 113 105 100 91 76 65 53 31 32 22 17 16 12 19 20 19 15 13 10 8 14 19 13 13 17 18 14 8 2 357 344 341 344 356 4 19 10 10
63 61 18 310 127 138 126 243 218 155 129 121 112 96 81 66 58 48 32 35 28 25 22 15 18 17 15 15 10 10 9 14 16 13 12 13 13 12 13 5 356 344 353 1 2 24 15 4 352
39 56 265 294 1 111 143 227 217 154 139 141 134 116 87 61 42 35 28 31 30 30 28 21 16 15 10 10 10 10 10 15 14 15 12 7 4 2 3 360 352 348 6 13 358 354 19 2 351
226 228 250 254 276 94 211 238 233 202 154 157 147 121 91 68 40 31 26 28 27 28 34 27 19 15 11 10 9 9 8 8 11 12 11 7 2 359 357 353 354 1 11 2 5 355 348 336 355
172 183 256 261 263 241 225 242 248 222 163 166 154 130 112 80 37 38 29 26 34 27 26 25 22 14 16 12 4 357 351 345 355 2 2 3 1 358 357 352 351 356 353 332 348 6 358 349 5
121 211 272 295 336 277 248 262 257 198 178 170 167 162 147 85 33 25 21 20 28 24 17 17 16 12 12 6 351 330 321 323 343 349 352 356 356 353 352 351 344 340 335 338 345 6 346 313 330
315 205 236 272 328 329 307 303 258 150 107 112 135 147 142 141 111 19 14 12 17 17 7 8 3 5 4 3 3 356 354 343 355 349 346 348 343 342 340 338 337 336 327 296 290 290 299 281 285
261 241 232 255 340 291 257 285 264 203 135 147 170 167 173 170 168 24 4 3 1 356 356 0 0 1 1 6 11 10 2 341 327 328 328 334 337 334 331 331 330 326 323 300 282 298 290 261 275
237 280 262 249 199 286 251 226 281 218 230 234 217 211 208 207 194 236 323 335 341 348 356 354 358 360 1 3 4 3 351 331 323 329 332 331 334 333 328 324 325 320 315 303 295 285 277 266 260
307 359 18 50 85 273 228 196 267 243 233 221 211 211 208 216 230 283 319 350 352 355 360 2 3 359 358 359 357 354 341 335 336 335 331 327 328 331 331 323 318 314 307 298 289 280 269 262 261
43 55 11 349 340 256 252 211 249 266 261 197 189 199 210 212 235 272 310 342 342 346 349 355 359 351 349 350 345 337 329 326 324 323 321 319 321 320 319 321 315 309 301 292 289 276 263 254 247
271 130 161 238 259 287 313 245 255 291 321 115 144 162 168 243 248 264 276 297 316 328 340 344 344 340 340 341 334 325 323 320 314 314 312 308 304 302 306 311 312 309 300 293 287 274 265 260 251
142 183 172 158 269 274 270 280 291 180 34 61 86 91 273 271 278 283 285 301 315 320 323 321 326 330 331 332 329 323 322 318 312 311 310 307 308 309 309 309 308 308 304 295 282 267 264 258 251
149 150 105 143 242 272 281 262 244 223 227 231 233 243 269 282 286 295 304 305 311 307 314 323 323 320 320 324 323 327 316 310 310 312 308 305 306 309 307 306 304 302 301 300 286 268 262 259 256
161 170 161 174 194 210 273 269 228 209 206 204 224 242 252 271 278 286 295 297 304 320 324 325 325 327 326 323 318 318 313 311 314 311 307 306 307 308 304 300 298 295 294 295 288 279 268 259 260
188 189 161 185 241 214 244 270 283 185 190 194 223 259 268 276 278 282 292 308 318 326 320 318 320 322 319 317 316 314 312 313 313 310 309 310 307 307 304 300 293 290 289 286 280 280 276 263 258
Height
1520 1521 1522 1524 1528 1541 1544 1540 1535 1534 1534 1535 1534 1534 1537 1543 1547 1553 1551 1548 1548 1548 1548 1548 1547 1547 1547 1547 1547 1546 1546 1546 1546 1546 1546 1546 1545 1545 1545 1545 1545 1545 1545 1545 1544 1544 1544 1544 1545
1520 1521 1524 1524 1536 1550 1547 1540 1537 1535 1535 1535 1535 1537 1539 1544 1547 1549 1548 1548 1548 1548 1548 1547 1547 1547 1547 1547 1547 1546 1546 1546 1546 1546 1546 1546 1546 1546 1545 1545 1545 1545 1545 1545 1545 1545 1545 1545 1545
1521 1522 1524 1529 1541 1548 1543 1538 1536 1535 1534 1534 1537 1539 1543 1547 1548 1549 1548 1548 1548 1548 1548 1547 1547 1547 1547 1547 1546 1546 1546 1546 1546 1546 1546 1546 1546 1545 1545 1545 1545 1545 1545 1545 1545 1545 1545 1545 1545
1521 1523 1526 1536 1542 1542 1539 1538 1535 1535 1535 1536 1538 1543 1546 1550 1550 1549 1548 1548 1547 1547 1547 1547 1547 1547 1547 1546 1546 1546 1546 1545 1546 1545 1545 1545 1545 1545 1545 1545 1545 1545 1545 1545 1545 1545 1545 1545 1546
1521 1523 1532 1543 1542 1540 1538 1537 1535 1535 1537 1539 1539 1544 1548 1550 1549 1549 1548 1547 1547 1547 1547 1547 1547 1547 1546 1546 1546 1545 1545 1545 1545 1545 1545 1545 1545 1545 1545 1545 1545 1545 1545 1545 1545 1545 1545 1545 1546
1523 1525 1540 1546 1542 1539 1538 1537 1536 1538 1540 1541 1542 1544 1548 1550 1549 1548 1548 1547 1547 1547 1547 1547 1547 1546 1546 1545 1545 1545 1544 1544 1544 1544 1544 1544 1544 1544 1544 1544 1544 1544 1544 1544 1544 1544 1545 1545 1545
1524 1531 1540 1541 1542 1541 1540 1539 1539 1540 1541 1543 1544 1546 1548 1549 1549 1548 1548 1547 1547 1547 1547 1546 1546 1546 1545 1545 1545 1544 1544 1543 1543 1543 1543 1543 1543 1543 1543 1543 1543 1543 1543 1543 1544 1544 1544 1544 1545
1525 1531 1538 1541 1541 1541 1540 1540 1542 1542 1543 1545 1545 1546 1548 1549 1548 1548 1548 1547 1547 1546 1546 1546 1545 1545 1545 1544 1544 1543 1543 1543 1543 1542 1542 1542 1542 1542 1542 1542 1542 1542 1542 1542 1542 1543 1543 1543 1544
1526 1537 1543 1541 1540 1541 1540 1541 1543 1544 1544 1545 1546 1548 1549 1549 1548 1547 1547 1546 1546 1545 1545 1545 1544 1544 1544 1543 1543 1542 1542 1542 1542 1541 1541 1541 1541 1541 1541 1541 1541 1541 1541 1541 1541 1542 1542 1542 1543
1528 1540 1540 1538 1537 1539 1541 1542 1543 1545 1545 1547 1548 1548 1548 1548 1547 1546 1545 1544 1544 1544 1544 1544 1543 1543 1543 1543 1542 1541 1541 1540 1540 1540 1540 1539 1539 1539 1539 1540 1539 1539 1539 1540 1540 1540 1541 1541 1541
1531 1538 1538 1538 1538 1539 1540 1543 1544 1545 1547 1548 1547 1548 1547 1547 1546 1546 1545 1545 1544 1544 1544 1543 1543 1542 1542 1541 1541 1540 1540 1539 1539 1539 1538 1538 1538 1538 1538 1538 1538 1538 1538 1538 1538 1539 1539 1539 1540
1534 1537 1537 1538 1539 1539 1541 1543 1545 1545 1548 1548 1548 1547 1547 1546 1546 1545 1545 1544 1544 1544 1543 1543 1542 1541 1541 1540 1540 1539 1538 1538 1538 1537 1537 1537 1536 1536 1536 1536 1536 1536 1536 1536 1536 1537 1537 1538 1538
1535 1538 1539 1540 1539 1540 1541 1543 1545 1547 1547 1548 1548 1547 1547 1547 1546 1546 1545 1544 1544 1543 1542 1542 1541 1540 1540 1539 1538 1538 1537 1537 1536 1536 1536 1535 1535 1535 1534 1534 1534 1534 1534 1534 1534 1535 1535 1535 1536
1536 1538 1540 1540 1540 1541 1542 1544 1546 1546 1547 1547 1546 1546 1546 1546 1546 1545 1544 1543 1543 1542 1542 1541 1541 1540 1539 1538 1537 1536 1536 1535 1535 1534 1534 1534 1533 1533 1532 1532 1532 1532 1532 1532 1532 1533 1533 1533 1533
1537 1540 1541 1541 1540 1542 1542 1546 1546 1545 1546 1546 1546 1546 1546 1546 1545 1544 1544 1543 1543 1542 1541 1540 1540 1539 1538 1537 1536 1535 1534 1534 1533 1533 1532 1532 1531 1531 1531 1530 1530 1530 1530 1530 1530 1530 1530 1531 1531
1538 1542 1545 1543 1541 1542 1545 1547 1545 1545 1545 1545 1546 1545 1545 1545 1545 1544 1544 1543 1542 1541 1540 1540 1539 1538 1537 1536 1535 1534 1532 1531 1531 1531 1530 1530 1529 1529 1528 1528 1527 1527 1527 1527 1528 1528 1528 1528 1528
1544 1547 1546 1544 1542 1542 1545 1546 1545 1545 1544 1544 1545 1545 1544 1544 1544 1543 1543 1542 1541 1540 1539 1538 1538 1536 1535 1534 1533 1532 1530 1529 1529 1528 1528 1527 1527 1526 1526 1526 1525 1525 1525 1525 1525 1525 1525 1525 1525
1546 1547 1546 1546 1543 1544 1546 1545 1544 1544 1544 1543 1544 1544 1544 1543 1543 1543 1542 1541 1541 1540 1538 1537 1536 1535 1534 1533 1532 1530 1529 1528 1527 1526 1525 1525 1524 1524 1523 1523 1523 1523 1522 1522 1522 1522 1523 1523 1523
1542 1544 1546 1545 1543 1544 1545 1544 1542 1542 1543 1542 1543 1543 1543 1543 1543 1543 1541 1541 1540 1538 1537 1536 1534 1533 1532 1530 1529 1527 1526 1525 1524 1523 1523 1522 1521 1521 1520 1520 1520 1520 1519 1519 1519 1519 1519 1519 1520
1542 1544 1546 1545 1543 1544 1544 1543 1540 1540 1540 1540 1541 1542 1542 1542 1542 1541 1540 1539 1538 1537 1536 1535 1533 1532 1530 1529 1527 1526 1524 1523 1522 1521 1520 1519 1518 1518 1517 1516 1516 1516 1516 1516 1516 1516 1516 1516 1517
1544 1545 1545 1546 1545 1543 1545 1543 1541 1540 1540 1541 1541 1541 1541 1541 1541 1540 1539 1538 1537 1536 1535 1533 1532 1531 1529 1527 1526 1524 1522 1521 1519 1518 1517 1516 1515 1515 1514 1514 1513 1513 1513 1512 1512 1513 1513 1513 1514
1544 1542 1542 1544 1548 1550 1547 1549 1541 1540 1541 1540 1540 1540 1539 1539 1539 1539 1538 1537 1536 1535 1534 1532 1531 1529 1527 1526 1524 1521 1519 1518 1516 1515 1513 1513 1512 1511 1511 1510 1510 1509 1509 1509 1509 1509 1510 1510 1510
1543 1541 1542 1543 1547 1550 1549 1551 1543 1540 1540 1539 1539 1538 1538 1538 1538 1538 1537 1536 1535 1534 1532 1531 1529 1528 1526 1524 1522 1520 1518 1516 1514 1512 1511 1510 1509 1508 1507 1506 1506 1505 1505 1505 1505 1505 1506 1506 1507
1542 1542 1543 1546 1550 1550 1544 1549 1542 1541 1537 1536 1537 1537 1537 1537 1537 1536 1536 1535 1534 1533 1531 1529 1528 1526 1524 1522 1520 1518 1516 1514 1512 1509 1508 1506 1505 1504 1503 1502 1502 1501 1501 1501 1501 1501 1501 1502 1503
1544 1548 1552 1551 1554 1547 1541 1544 1542 1538 1535 1534 1535 1536 1536 1536 1535 1535 1534 1533 1532 1531 1529 1528 1526 1523 1521 1520 1518 1516 1514 1511 1509 1506 1505 1503 1501 1499 1499 1498 1497 1497 1496 1496 1496 1496 1496 1497 1497
1546 1548 1555 1556 1553 1549 1544 1543 1541 1537 1534 1534 1534 1535 1535 1535 1535 1534 1533 1532 1531 1529 1527 1525 1523 1521 1519 1517 1515 1513 1511 1508 1506 1504 1502 1500 1497 1496 1495 1494 1492 1492 1492 1491 1491 1491 1491 1491 1492
1546 1550 1550 1557 1558 1558 1548 1545 1539 1536 1535 1534 1534 1534 1534 1534 1533 1532 1531 1531 1529 1527 1525 1523 1521 1519 1516 1514 1512 1510 1508 1505 1503 1500 1499 1497 1495 1493 1491 1489 1488 1487 1486 1486 1485 1485 1485 1485 1486
1546 1548 1556 1557 1556 1553 1546 1544 1539 1536 1535 1534 1534 1533 1533 1532 1532 1531 1530 1528 1527 1525 1523 1521 1519 1516 1514 1511 1509 1507 1504 1502 1500 1497 1495 1493 1491 1489 1487 1485 1483 1482 1481 1480 1479 1479 1479 1480 1480
1547 1549 1551 1556 1557 1555 1553 1542 1533 1532 1531 1532 1532 1532 1531 1531 1530 1529 1528 1526 1525 1523 1520 1518 1516 1513 1511 1508 1506 1503 1501 1499 1496 1493 1491 1489 1486 1484 1482 1480 1478 1477 1475 1474 1474 1473 1473 1474 1474
1544 1545 1550 1554 1554 1556 1554 1544 1530 1529 1529 1530 1531 1530 1530 1529 1528 1526 1525 1523 1522 1519 1517 1515 1513 1510 1507 1505 1502 1500 1497 1495 1492 1489 1487 1484 1482 1480 1478 1475 1473 1472 1470 1469 1468 1468 1468 1467 1467